Theta_e
345 343 336 337 336 334 333 332 332 334 337 339 341 342 342 343 341 340 339 341 341 340 338 337 340 343 345 345 343 343 342 341 342 342 340 335 330 328 331 337 344 347 343
339 341 338 337 337 335 334 333 332 332 334 337 340 341 342 342 342 341 340 341 342 343 343 342 341 344 345 345 345 344 344 344 343 337 334 333 335 330 331 334 338 347 345
339 340 338 338 338 337 336 335 334 334 334 335 337 338 337 338 338 339 339 340 341 341 342 342 341 341 342 344 346 347 346 345 344 342 339 337 335 339 334 333 338 341 345
350 340 340 340 339 339 338 337 336 336 336 335 334 334 334 334 333 333 334 334 336 337 338 339 340 340 339 339 340 341 342 342 343 344 344 342 339 342 341 333 337 340 340
350 341 341 340 340 339 339 338 337 336 336 335 336 335 336 335 335 335 334 333 333 333 334 336 337 337 337 337 336 337 337 338 338 339 339 337 336 342 343 336 336 337 338
340 341 342 341 340 339 339 338 338 338 338 338 338 338 338 338 339 339 338 337 337 336 336 335 334 334 336 336 336 336 335 334 335 334 333 333 338 341 344 339 337 334 333
342 341 340 339 339 340 341 342 343 342 335 332 331 332 338 336 332 336 336 338 341 342 343 343 342 340 338 335 335 339 344 343 339 336 335 336 340 343 343 342 338 337 337
343 340 342 343 344 340 333 325 324 324 325 328 330 330 329 331 331 332 332 337 328 327 327 328 328 329 330 334 338 338 335 337 344 346 343 341 338 340 343 343 339 339 338
343 340 338 323 319 319 321 324 327 329 329 328 330 331 330 331 333 329 331 330 328 329 328 328 328 328 329 331 330 330 332 338 336 336 338 341 338 340 342 342 341 339 339
348 339 324 323 327 327 328 328 329 330 329 329 326 329 327 330 327 329 327 329 327 327 326 327 329 330 330 332 333 334 336 337 341 339 337 336 333 332 340 343 342 339 338
349 344 329 327 328 328 329 329 330 330 331 327 327 325 325 329 327 327 327 328 326 326 327 327 328 331 333 331 336 341 346 348 348 342 340 339 337 335 337 341 342 338 339
331 330 330 330 329 330 330 330 326 326 327 328 327 326 324 325 325 323 322 321 328 325 326 328 329 328 328 329 330 330 332 335 344 344 345 344 344 343 342 341 341 339 339
330 331 328 328 328 327 327 327 325 324 324 327 326 326 325 324 320 318 319 324 327 324 329 327 327 324 327 328 330 330 330 330 332 334 343 344 345 344 343 342 341 340 340
332 332 330 327 327 326 324 326 325 323 323 325 324 324 323 325 323 321 321 323 322 325 325 323 319 321 323 324 326 326 328 331 331 331 331 343 347 348 345 345 346 344 340
333 332 329 327 326 322 325 326 325 322 323 322 322 322 323 325 323 324 323 322 321 324 322 321 319 321 322 321 325 325 326 327 326 328 331 331 334 343 340 344 344 342 339
333 332 330 328 330 325 324 324 325 323 323 323 322 326 325 324 322 324 323 322 321 322 321 320 319 321 323 323 322 320 316 317 323 327 328 331 331 333 337 338 342 342 342
333 332 331 329 327 324 324 324 325 322 324 322 321 325 323 321 323 323 322 321 322 321 322 319 321 320 323 321 320 321 319 322 323 327 327 328 327 327 334 338 337 342 342
332 330 329 327 326 326 323 324 322 323 321 321 320 320 322 320 323 323 322 323 323 322 319 320 320 321 319 319 319 318 317 323 320 322 324 327 325 326 330 334 337 341 339
332 331 329 327 324 324 324 322 322 321 321 320 320 318 322 320 317 320 321 320 320 317 318 318 316 316 317 319 321 321 321 320 320 322 323 320 325 328 331 333 333 339 341
332 329 327 326 323 325 323 322 321 320 320 318 318 321 317 317 319 317 317 316 315 317 317 318 318 317 317 317 317 317 318 318 319 320 321 323 324 324 330 336 336 338 340
330 327 326 326 325 325 322 323 322 319 318 319 319 317 316 318 316 318 316 316 317 317 316 314 315 316 315 315 315 316 316 316 317 320 322 320 322 328 332 335 338 337 337
328 326 326 326 325 324 321 320 319 317 317 317 315 315 314 314 316 315 315 315 314 314 315 315 314 315 315 315 316 316 315 317 317 317 319 320 325 327 331 334 337 336 335
327 326 325 325 325 322 319 318 317 317 317 315 315 314 314 315 314 312 313 313 312 314 312 312 313 314 314 314 315 315 315 317 317 317 317 321 324 324 329 333 334 335 335
325 325 324 324 323 320 318 317 317 317 316 315 313 314 315 313 313 312 311 311 309 309 311 311 313 314 315 315 315 314 315 316 318 317 318 319 320 324 327 327 332 333 333
324 323 324 323 321 319 318 317 317 315 315 313 313 314 313 313 311 311 310 309 309 310 312 312 313 313 313 314 314 315 316 316 317 315 318 317 319 323 323 327 325 328 328
323 323 324 322 320 318 318 316 316 315 314 315 313 312 312 311 311 310 309 309 309 311 311 311 312 311 312 312 313 314 315 316 316 316 317 317 319 322 323 323 320 319 321
Wind_Speed
11 14 14 15 16 16 16 16 16 16 15 15 14 14 13 13 13 12 11 10 9 8 7 5 4 3 3 3 3 3 4 4 5 5 4 3 2 0 2 6 6 4 4
16 15 15 16 15 16 16 15 16 16 15 15 14 13 12 12 11 11 9 8 7 6 5 3 2 2 2 3 4 5 5 6 6 6 6 5 5 4 5 6 6 4 7
19 16 17 16 16 16 15 15 16 16 15 14 13 12 12 11 10 9 8 6 5 4 3 3 3 4 5 5 6 7 7 7 8 8 9 9 8 9 10 10 9 7 8
17 16 18 16 16 15 15 15 15 15 15 14 13 12 11 10 9 8 7 6 5 4 3 3 5 6 8 9 10 11 11 11 12 12 13 13 12 12 21 16 12 10 9
17 17 17 17 16 16 15 14 15 15 14 13 12 12 11 10 9 8 7 7 6 6 6 7 7 8 10 11 12 14 14 15 16 16 17 16 15 16 17 20 14 13 11
21 19 17 16 16 15 15 14 15 15 14 13 13 12 12 11 11 10 9 9 9 9 9 9 10 11 12 13 14 15 16 17 19 19 19 18 16 17 17 21 17 14 12
21 19 17 16 16 15 14 14 15 16 16 16 15 14 12 13 13 12 12 12 11 13 12 13 13 14 15 16 17 18 19 19 19 21 21 20 19 21 20 26 22 18 17
16 18 18 17 17 18 18 19 20 21 21 20 20 18 13 15 13 14 14 11 18 18 17 16 17 18 19 20 20 21 22 22 21 22 23 23 23 23 24 27 29 24 21
18 21 22 22 23 24 23 22 21 21 20 18 20 20 18 19 14 20 17 16 21 23 19 21 23 24 23 23 23 24 25 26 26 28 28 27 26 24 27 30 32 31 25
25 24 25 25 24 21 20 20 20 19 17 17 16 15 16 19 18 17 17 23 20 20 22 25 26 25 25 27 26 27 27 28 30 32 34 35 32 29 31 30 31 33 28
23 20 20 21 19 18 18 17 16 17 15 15 15 17 14 17 15 15 15 18 21 18 22 23 24 23 21 25 26 27 26 28 30 32 34 37 35 33 31 35 33 33 32
29 26 25 20 16 14 14 16 17 14 15 14 15 16 18 15 17 18 18 19 19 23 25 23 22 24 28 28 27 28 26 28 28 33 35 37 35 31 28 33 36 35 35
30 23 19 23 23 22 19 18 15 14 11 13 14 16 18 15 20 23 23 21 22 24 19 23 26 27 28 29 30 28 28 28 25 28 30 33 33 34 37 40 43 41 38
30 24 17 17 17 13 12 13 10 12 13 10 11 13 18 14 17 19 19 20 23 23 25 26 26 23 29 28 29 32 29 26 25 27 29 28 31 34 34 34 38 42 39
28 19 15 15 15 14 13 13 11 11 13 11 12 12 8 9 14 10 15 15 18 21 26 28 28 28 30 29 26 28 32 34 34 26 27 29 27 31 35 27 29 34 33
26 18 12 13 11 10 11 12 10 11 11 11 13 7 4 8 10 8 10 11 15 19 23 26 27 30 31 24 30 32 34 36 34 34 27 24 28 29 35 39 31 39 38
22 15 12 11 9 11 12 12 10 12 12 13 14 8 11 18 8 10 13 17 14 17 17 21 23 29 25 34 35 31 31 33 33 33 35 29 28 32 33 37 39 45 44
23 19 15 10 9 9 8 10 10 12 13 14 14 16 18 23 16 15 19 17 15 15 21 20 24 26 32 32 33 36 36 29 33 35 33 33 34 31 33 31 38 44 40
23 18 12 7 7 8 8 11 12 13 14 15 16 19 18 18 26 17 16 17 19 26 22 24 29 31 30 27 27 29 30 35 32 31 33 40 37 34 31 31 35 38 34
23 17 10 8 7 11 9 10 12 14 17 19 20 19 28 31 21 28 26 24 29 24 25 24 24 26 26 29 30 29 29 31 33 34 33 31 34 36 32 31 26 22 24
22 20 15 10 7 7 12 14 16 21 21 22 20 29 29 23 34 27 30 31 24 20 21 25 27 28 28 27 26 25 26 33 32 28 21 36 37 33 30 25 25 19 23
25 22 17 12 9 3 7 9 10 13 13 13 24 22 26 29 29 29 25 27 28 27 21 22 26 26 23 21 19 21 8 16 24 21 27 27 27 31 29 19 14 16 17
24 23 18 11 10 6 3 1 7 8 11 18 21 25 23 21 20 28 27 26 29 22 28 25 25 24 23 24 21 12 5 5 13 21 25 16 24 31 25 11 4 7 12
22 20 15 14 14 9 4 3 4 3 7 13 20 22 18 16 20 23 29 29 31 29 26 26 24 25 25 19 22 19 22 21 6 9 8 18 27 26 15 9 7 6 16
18 21 20 15 14 10 2 4 4 8 12 16 18 15 20 20 28 19 24 27 29 26 25 23 24 25 25 23 20 20 20 19 18 3 9 12 23 15 11 16 15 6 7
10 10 17 15 13 2 3 2 5 8 12 13 15 21 22 27 18 21 25 27 26 24 22 24 21 21 20 20 20 19 16 9 9 7 4 8 8 13 6 4 9 6 18
Wind_Direction
98 102 93 89 88 86 81 82 80 77 77 78 78 79 77 73 75 74 76 73 72 74 76 79 75 64 42 21 10 4 357 350 349 350 348 346 341 6 140 133 129 119 138
119 105 96 93 91 88 85 82 81 80 78 77 78 77 73 72 69 68 68 65 62 59 54 43 28 5 342 325 322 322 321 321 323 324 320 307 287 259 210 192 202 161 189
110 108 99 94 91 88 85 83 83 83 80 77 74 72 70 66 66 63 62 59 58 53 30 1 328 299 289 289 293 295 295 294 295 297 297 296 292 262 251 213 203 201 199
105 108 103 99 94 91 88 87 85 83 81 78 74 67 64 61 58 58 54 51 39 21 357 331 311 298 291 287 283 283 285 286 286 285 283 284 282 277 276 226 211 214 213
113 109 104 100 98 92 90 87 84 81 79 76 71 67 60 54 46 41 39 30 17 357 338 322 311 301 294 290 287 286 283 282 280 279 279 280 281 293 272 219 216 219 226
119 115 108 100 92 91 88 85 82 80 75 70 64 57 51 44 38 33 24 18 4 353 336 324 313 304 298 293 288 285 284 283 283 280 278 276 270 283 261 219 222 222 233
112 109 103 98 99 95 87 82 78 75 71 66 60 52 51 50 38 34 21 14 4 352 337 327 319 311 302 294 288 285 283 282 280 279 278 273 265 274 264 239 226 235 248
107 110 105 101 95 90 90 86 84 79 72 66 53 40 47 34 26 22 10 9 359 353 346 337 326 314 303 297 292 287 281 277 274 272 273 272 265 264 274 247 237 239 245
129 122 110 106 98 91 88 83 79 72 67 62 51 51 42 31 32 22 15 6 353 347 344 339 332 324 316 309 300 291 286 280 272 270 268 267 265 260 273 260 253 239 238
146 116 116 113 101 96 92 88 78 69 61 53 44 43 46 38 29 19 17 11 15 2 348 339 337 337 332 320 309 300 296 289 275 272 273 270 268 261 257 266 257 243 237
129 122 129 129 120 102 102 93 78 61 73 58 40 33 45 33 22 12 6 354 351 360 356 353 347 352 360 353 342 333 319 302 288 277 275 275 274 269 257 258 259 243 238
106 94 96 104 166 114 107 87 76 72 63 44 35 30 26 25 19 12 2 1 6 354 350 343 342 339 342 346 337 332 326 318 296 292 284 280 274 272 265 259 259 248 240
103 93 88 88 95 98 99 83 75 65 57 47 21 16 6 17 15 4 3 3 360 353 345 337 336 337 342 339 336 331 326 323 318 315 300 283 274 270 269 261 256 251 239
101 96 95 89 89 84 85 77 67 56 51 43 16 357 346 353 358 358 356 350 352 350 342 344 344 338 337 335 330 328 326 331 328 322 316 301 269 269 280 282 251 251 236
97 96 87 82 77 78 91 71 76 57 48 38 13 352 341 324 350 350 342 341 340 342 334 337 339 337 329 325 327 329 327 324 321 317 321 316 306 281 276 271 258 253 241
100 96 88 73 68 72 80 70 56 30 47 35 21 13 32 4 0 329 348 328 323 331 331 330 328 328 323 325 323 321 321 315 313 316 314 310 312 308 285 259 248 252 245
105 104 97 79 68 54 63 68 49 38 24 34 26 39 18 356 346 336 319 325 312 320 331 331 322 327 320 323 325 322 319 316 316 316 311 310 314 302 300 280 260 247 253
113 98 102 76 65 43 54 30 55 45 31 23 13 358 347 344 343 333 335 323 328 337 333 329 325 321 322 323 317 315 315 306 313 310 308 308 308 299 293 291 277 256 263
121 111 103 72 68 31 28 44 39 33 23 11 357 357 6 5 347 344 354 347 337 332 331 323 318 314 318 316 314 312 307 310 309 308 310 310 314 309 293 284 286 268 265
124 116 109 77 60 35 29 29 29 19 8 4 2 2 351 349 356 344 342 335 331 327 328 331 329 323 317 314 314 309 306 304 303 306 311 313 320 321 318 300 283 278 260
126 123 114 101 73 39 34 34 29 16 5 5 2 345 346 346 347 344 336 335 337 330 325 323 324 317 311 310 308 306 304 300 295 296 319 324 325 333 329 314 279 266 251
138 135 133 125 108 92 56 43 20 13 6 349 339 352 337 337 339 341 350 341 337 331 334 331 326 317 313 313 311 311 309 310 296 316 318 324 332 341 340 319 285 266 239
144 142 142 148 146 140 127 76 6 11 5 349 345 342 338 338 336 331 334 331 330 328 326 328 321 313 307 307 304 285 303 296 321 316 314 323 338 339 343 317 298 212 207
146 155 168 174 155 155 166 34 357 17 357 348 337 329 328 334 326 325 321 326 328 326 326 324 316 316 309 302 307 297 284 285 304 316 341 331 334 340 348 344 3 190 173
159 176 179 158 152 149 109 357 2 351 343 341 334 336 339 326 331 328 328 327 333 330 328 329 327 323 315 306 299 295 299 295 301 272 318 325 329 338 21 58 66 139 124
182 186 137 129 132 146 325 347 350 331 344 2 350 339 329 331 331 330 331 332 337 334 332 333 330 330 332 332 334 328 314 308 316 316 305 315 299 317 302 60 74 58 114